This is the latest recevied weather packets stored in our database for station/object OE5OVL-13. If no packets are shown the sender has not sent any weather packets the latest 10 day(s).
| Time | Temp. | Humidity | Pressure | Rain* | Wind** | Luminosity | Snow |
|---|---|---|---|---|---|---|---|
| 1777752588 | 18.33° C | 33% | 726.9 hPa | 0 mm | - | - | - |
| 1777751676 | 18.89° C | 32% | 727.3 hPa | 0 mm | - | - | - |
| 1777750764 | 18.89° C | 33% | 727.2 hPa | 0 mm | - | - | - |
| 1777748941 | 20.56° C | 31% | 729.1 hPa | 0 mm | - | - | - |
| 1777748029 | 21.11° C | 29% | 729.9 hPa | 0 mm | - | - | - |
| 1777747117 | 21.67° C | 28% | 730.5 hPa | 0 mm | - | - | - |
| 1777746206 | 22.22° C | 27% | 731.4 hPa | 0 mm | - | - | - |
| 1777745294 | 23.89° C | 24% | 733.5 hPa | 0 mm | - | - | - |
| 1777744382 | 25° C | 22% | 734.8 hPa | 0 mm | - | - | - |
| 1777743471 | 27.22° C | 20% | 737.2 hPa | 0 mm | - | - | - |
| 1777742559 | 32.78° C | 15% | 743.2 hPa | 0 mm | - | - | - |
| 1777741647 | 39.44° C | 11% | 751.1 hPa | 0 mm | - | - | - |
| 1777740735 | 38.89° C | 11% | 751 hPa | 0 mm | - | - | - |
| 1777739823 | 38.89° C | 11% | 750.4 hPa | 0 mm | - | - | - |
| 1777738912 | 38.89° C | 10% | 750.4 hPa | 0 mm | - | - | - |
| 1777738000 | 38.89° C | 11% | 750.5 hPa | 0 mm | - | - | - |
| 1777737088 | 38.89° C | 11% | 750.7 hPa | 0 mm | - | - | - |
| 1777736177 | 38.33° C | 11% | 749.9 hPa | 0 mm | - | - | - |
| 1777735265 | -12.22° C | - | - | - | - | - | - |
| 1777733441 | 37.22° C | 11% | 748.6 hPa | 0 mm | - | - | - |
| 1777732530 | 36.67° C | 13% | 748.3 hPa | 0 mm | - | - | - |
| 1777731618 | 36.11° C | 13% | 747.3 hPa | 0 mm | - | - | - |
| 1777730706 | 35° C | 14% | 746 hPa | 0 mm | - | - | - |
| 1777729794 | 34.44° C | 15% | 745.5 hPa | 0 mm | - | - | - |
| 1777728882 | 33.33° C | 15% | 744.3 hPa | 0 mm | - | - | - |
* Rain latest hour (hover to see other rain measurements)
** Current wind speed in m/s (hover to see current wind gust speed)